North Wilkesboro, NC

11:43 AM EST on February 19, 2017 (GMT -0500)
Wilkes County

Weather History for KUKF - August, 2013

Change the Weather History Date:

Saturday, August 10, 2013

  Actual Average Record
Temperature  
Mean Temperature 77 °F -  
Max Temperature 86 °F 87 °F 100 °F (2007)
Min Temperature 68 °F 63 °F 49 °F (1989)
Cooling Degree Days 12    
Growing Degree Days 27 (Base 50)    
Moisture  
Dew Point 70 °F    
Average Humidity 93    
Maximum Humidity 100    
Minimum Humidity 66    
Precipitation  
Precipitation 0.27 in - - ()
Sea Level Pressure  
Sea Level Pressure 30.17 in    
Wind  
Wind Speed 2 mph (SW)    
Max Wind Speed 15 mph    
Max Gust Speed 22 mph    
Visibility 7 miles    
Events Fog , Rain , Thunderstorm    
Averages and records for this station are not official NWS values.
T = Trace of Precipitation, MM = Missing Value Source: NWS Daily Summary

Daily Weather History Graph

Daily Weather History Graph

Search for Another Location

Airport or City:

Trip Planner

Search our weather history database for the weather conditions in past years. The results will help you decide how hot, cold, wet, or windy it might be!

Date:

Astronomy

Aug. 10, 2013 Rise Set
Actual Time 6:38 AM EDT 8:20 PM EDT
Civil Twilight 6:11 AM EDT 8:47 PM EDT
Nautical Twilight 5:37 AM EDT 9:20 PM EDT
Astronomical Twilight 5:02 AM EDT 9:56 PM EDT
Moon 10:14 AM EDT (8/10) 10:10 PM EDT (8/10)
Length of Visible Light 14h 36m
Length of Day
13h 41m
Waxing Crescent, 14% of the Moon is Illuminated
Aug 10
Waxing Crescent
Aug 14
First Quarter
Aug 20
Full
Aug 28
Last Quarter
Sep 5
New

Hourly Weather History & Observations

Time (EDT) Temp. Heat Index Dew Point Humidity Pressure Visibility Wind Dir Wind Speed Gust Speed Precip Events Conditions
12:15 AM 69.8 °F - 69.8 °F 100% 30.15 in 7.0 mi Calm Calm - N/A   Clear
12:35 AM 69.8 °F - 69.8 °F 100% 30.15 in 7.0 mi Calm Calm - N/A   Clear
12:55 AM 69.8 °F - 69.8 °F 100% 30.16 in 7.0 mi Calm Calm - N/A   Clear
1:15 AM 69.8 °F - 69.8 °F 100% 30.16 in 7.0 mi Calm Calm - N/A   Clear
1:35 AM 69.8 °F - 69.8 °F 100% 30.15 in 7.0 mi Calm Calm - N/A   Clear
1:55 AM 69.8 °F - 69.8 °F 100% 30.15 in 7.0 mi Calm Calm - N/A   Scattered Clouds
2:15 AM 69.8 °F - 69.8 °F 100% 30.15 in 5.0 mi Calm Calm - N/A   Scattered Clouds
2:35 AM 69.8 °F - 69.8 °F 100% 30.15 in 5.0 mi SW 3.5 mph - N/A   Mostly Cloudy
2:55 AM 69.8 °F - 69.8 °F 100% 30.15 in 5.0 mi Calm Calm - N/A   Mostly Cloudy
3:15 AM 69.8 °F - 69.8 °F 100% 30.15 in 5.0 mi WSW 4.6 mph - N/A   Mostly Cloudy
3:35 AM 69.8 °F - 69.8 °F 100% 30.15 in 4.0 mi West 4.6 mph - N/A   Clear
3:55 AM 69.8 °F - 69.8 °F 100% 30.15 in 5.0 mi West 3.5 mph - N/A   Clear
4:15 AM 69.8 °F - 69.8 °F 100% 30.14 in 5.0 mi Calm Calm - N/A   Clear
4:35 AM 69.8 °F - 69.8 °F 100% 30.14 in 4.0 mi SSW 3.5 mph - N/A   Clear
4:55 AM 69.8 °F - 69.8 °F 100% 30.14 in 3.0 mi Calm Calm - N/A   Clear
5:15 AM 68.0 °F - 68.0 °F 100% 30.14 in 4.0 mi Calm Calm - N/A   Clear
5:35 AM 69.8 °F - 69.8 °F 100% 30.14 in 4.0 mi Calm Calm - N/A   Mostly Cloudy
5:55 AM 69.8 °F - 69.8 °F 100% 30.15 in 0.5 mi Calm Calm - N/A Fog Fog
6:15 AM 69.8 °F - 69.8 °F 100% 30.15 in 0.5 mi Calm Calm - N/A Fog Fog
6:35 AM 68.0 °F - 68.0 °F 100% 30.15 in 3.0 mi Calm Calm - N/A   Mostly Cloudy
6:55 AM 68.0 °F - 68.0 °F 100% 30.16 in 3.0 mi WSW 3.5 mph - N/A   Scattered Clouds
7:15 AM 69.8 °F - 69.8 °F 100% 30.16 in 3.0 mi SW 3.5 mph - N/A   Scattered Clouds
7:35 AM 69.8 °F - 69.8 °F 100% 30.17 in 4.0 mi Calm Calm - N/A   Scattered Clouds
7:55 AM 69.8 °F - 69.8 °F 100% 30.17 in 7.0 mi Calm Calm - N/A   Scattered Clouds
8:15 AM 71.6 °F - 69.8 °F 94% 30.17 in 10.0 mi Calm Calm - N/A   Clear
8:35 AM 71.6 °F - 69.8 °F 94% 30.17 in 10.0 mi Calm Calm - N/A   Clear
8:55 AM 73.4 °F - 69.8 °F 88% 30.17 in 10.0 mi Calm Calm - N/A   Clear
9:15 AM 73.4 °F - 71.6 °F 94% 30.17 in 10.0 mi Calm Calm - N/A   Clear
9:35 AM 77.0 °F - 71.6 °F 83% 30.17 in 10.0 mi Calm Calm - N/A   Clear
9:55 AM 77.0 °F - 71.6 °F 83% 30.17 in 10.0 mi Calm Calm - N/A   Clear
10:15 AM 78.8 °F - 71.6 °F 78% 30.17 in 10.0 mi Calm Calm - N/A   Clear
10:35 AM 80.6 °F 85.4 °F 73.4 °F 79% 30.18 in 10.0 mi SSW 3.5 mph - N/A   Clear
10:55 AM 82.4 °F 88.2 °F 73.4 °F 74% 30.18 in 10.0 mi SW 5.8 mph - N/A   Clear
11:15 AM 82.4 °F 88.2 °F 73.4 °F 74% 30.18 in 10.0 mi South 3.5 mph - N/A   Clear
11:35 AM 84.2 °F 90.9 °F 73.4 °F 70% 30.18 in 10.0 mi SSW 5.8 mph - N/A   Clear
11:55 AM 86.0 °F 93.4 °F 73.4 °F 66% 30.18 in 10.0 mi Calm Calm - N/A   Scattered Clouds
12:15 PM 86.0 °F 93.4 °F 73.4 °F 66% 30.17 in 10.0 mi Calm Calm - N/A   Scattered Clouds
12:35 PM 84.2 °F 90.9 °F 73.4 °F 70% 30.16 in 10.0 mi SW 5.8 mph - N/A   Scattered Clouds
12:55 PM 78.8 °F - 71.6 °F 78% 30.17 in 10.0 mi WSW 12.7 mph 21.9 mph N/A Thunderstorm Drizzle
1:15 PM 73.4 °F - 69.8 °F 88% 30.18 in 10.0 mi SW 8.1 mph - N/A Thunderstorm Unknown
1:35 PM 71.6 °F - 68.0 °F 88% 30.17 in 10.0 mi SW 3.5 mph - N/A Rain Light Rain
1:55 PM 71.6 °F - 69.8 °F 94% 30.16 in 10.0 mi WSW 8.1 mph - N/A Thunderstorm Scattered Clouds
2:15 PM 73.4 °F - 69.8 °F 88% 30.16 in 10.0 mi SSW 4.6 mph - N/A Thunderstorm Clear
2:35 PM 78.8 °F - 71.6 °F 78% 30.16 in 10.0 mi South 5.8 mph - N/A   Clear
2:55 PM 80.6 °F 84.6 °F 71.6 °F 74% 30.15 in 10.0 mi SSW 3.5 mph - N/A   Clear
3:15 PM 82.4 °F 87.2 °F 71.6 °F 70% 30.14 in 10.0 mi SSE 4.6 mph - N/A   Clear
3:35 PM 78.8 °F - 71.6 °F 78% 30.15 in 10.0 mi Calm Calm - N/A   Clear
3:55 PM 78.8 °F - 71.6 °F 78% 30.15 in 10.0 mi SW 3.5 mph - N/A Thunderstorm Clear
4:15 PM 77.0 °F - 71.6 °F 83% 30.15 in 10.0 mi SW 15.0 mph - N/A Rain , Thunderstorm Light Thunderstorms and Rain
4:35 PM 71.6 °F - 69.8 °F 94% 30.15 in 7.0 mi WSW 5.8 mph - 0.03 in Rain , Thunderstorm Light Thunderstorms and Rain
4:55 PM 69.8 °F - 69.8 °F 100% 30.17 in 7.0 mi WSW 8.1 mph - 0.05 in Rain , Thunderstorm Light Thunderstorms and Rain
5:15 PM 71.6 °F - 71.6 °F 100% 30.19 in 5.0 mi NNE 11.5 mph - 0.01 in Rain , Thunderstorm Rain
5:35 PM 71.6 °F - 69.8 °F 94% 30.20 in 10.0 mi North 4.6 mph - 0.01 in Rain , Thunderstorm Light Thunderstorms and Rain
5:55 PM 71.6 °F - 69.8 °F 94% 30.20 in 7.0 mi Calm Calm - 0.03 in Rain , Thunderstorm Light Thunderstorms and Rain
6:15 PM 71.6 °F - 71.6 °F 100% 30.20 in 3.0 mi West 4.6 mph - 0.08 in Rain , Thunderstorm Heavy Thunderstorms and Rain
6:35 PM 69.8 °F - 69.8 °F 100% 30.18 in 5.0 mi Calm Calm - 0.13 in Rain Rain
6:55 PM 69.8 °F - 69.8 °F 100% 30.19 in 4.0 mi Calm Calm - 0.16 in Rain Light Rain
7:15 PM 69.8 °F - 69.8 °F 100% 30.20 in 7.0 mi Calm Calm - 0.01 in Rain Light Rain
7:35 PM 69.8 °F - 69.8 °F 100% 30.18 in 7.0 mi Calm Calm - 0.02 in Rain Light Rain
7:55 PM 69.8 °F - 69.8 °F 100% 30.18 in 5.0 mi Calm Calm - 0.03 in   Scattered Clouds
8:15 PM 69.8 °F - 69.8 °F 100% 30.17 in 5.0 mi Calm Calm - N/A   Clear
8:35 PM 69.8 °F - 69.8 °F 100% 30.17 in 5.0 mi Calm Calm - N/A   Scattered Clouds
8:55 PM 69.8 °F - 69.8 °F 100% 30.17 in 1.5 mi SW 3.5 mph - N/A   Mostly Cloudy
9:15 PM 69.8 °F - 69.8 °F 100% 30.18 in 2.5 mi SW 3.5 mph - N/A   Overcast
9:35 PM 69.8 °F - 69.8 °F 100% 30.18 in 3.0 mi West 3.5 mph - N/A   Overcast
9:55 PM 69.8 °F - 69.8 °F 100% 30.20 in 1.8 mi WSW 4.6 mph - N/A   Overcast
10:15 PM 69.8 °F - 69.8 °F 100% 30.19 in 1.5 mi SSW 4.6 mph - N/A   Overcast
10:35 PM 69.8 °F - 69.8 °F 100% 30.19 in 2.5 mi SW 5.8 mph - N/A   Overcast
10:55 PM 69.8 °F - 69.8 °F 100% 30.19 in 5.0 mi Calm Calm - N/A   Overcast
11:15 PM 69.8 °F - 69.8 °F 100% 30.19 in 4.0 mi SW 5.8 mph - N/A   Overcast
11:35 PM 69.8 °F - 69.8 °F 100% 30.18 in 5.0 mi SW 6.9 mph - N/A   Overcast
11:55 PM 68.0 °F - 68.0 °F 100% 30.18 in 10.0 mi WSW 3.5 mph - N/A   Scattered Clouds